STARLINK-34981 (65198 NORAD) Tracking and Keplerian Element Data

This shows tracking and keplerian element data for the satellite.

Feedback or suggestion? Click here.




ElementValue
Catalog65198
NameSTARLINK-34981
Epoch Orbit2086
Epoch Day353.89904892
Epoch Year2025
RAAN166.2168
Inclination53.1572
Eccentricity0.0001569
Argument of Perigee80.7724
Mean Anonmoly279.3454
Mean Motion15.30209372
Decay Rate0.00016506
L11 65198U 25176A 25353.89904892 .00016506 00000+0 56801-3 0 9997
L22 65198 53.1572 166.2168 0001569 80.7724 279.3454 15.30209372 20865



Live tracking and technical data element details for STARLINK-34981 (NORAD 65198). STARLINK-34981 can be tracked NOW for your location showing map with azimuth and elevation plus other details from your city location.







IsCatalogInMostPopularTable: catalog: 65198, numindb: 9
Update: records affected: 1



GetName: 65198 STARLINK-34981

Hit Count: updated at: Tue, 21 Apr 2026 19:07:29 GMT